GFSFLT2_500_rhum_159.txt.gz
RH
39 38 35 37 33 34 34 22 15 10 9 10 10 10 9 9 9 9 8 8 8 8 6 5 5 5 10 23 26 38 56 51
24 20 16 12 24 24 16 13 12 11 11 11 11 10 10 9 9 6 6 6 6 7 7 8 6 6 5 6 6 6 25 49
13 8 6 7 9 10 10 10 10 10 10 10 10 9 8 7 6 6 5 5 7 11 17 12 7 8 8 7 6 7 7 12
7 13 8 8 8 8 8 8 8 7 6 6 7 7 7 6 6 5 5 5 6 13 21 28 30 12 7 8 8 8 8 9
32 8 7 7 8 7 6 6 6 5 6 6 6 5 4 4 4 4 5 5 9 16 13 21 28 28 17 8 8 9 10 10
7 7 7 7 6 7 10 18 28 34 35 32 30 29 31 32 32 34 35 34 32 31 28 25 27 27 19 13 11 9 9 11
9 10 10 10 12 20 30 38 42 41 41 42 42 36 31 30 29 28 27 26 25 24 24 23 22 21 21 20 18 17 11 10
14 16 17 18 25 35 38 36 34 32 32 32 31 31 30 29 28 26 25 24 24 22 22 22 23 22 20 20 20 20 19 12
44 45 46 44 40 34 33 33 33 33 33 32 30 28 26 25 24 23 22 21 20 19 19 18 18 18 19 21 20 19 19 18
33 32 33 34 35 37 39 38 37 34 30 29 28 27 25 24 22 21 20 18 16 15 14 13 13 13 14 14 16 19 20 19
38 39 41 42 42 41 38 36 34 32 31 30 28 27 25 22 20 17 15 13 12 12 11 11 11 11 11 11 12 12 16 19
47 47 45 44 44 42 38 36 34 33 31 30 27 24 20 17 15 14 11 10 9 8 9 8 9 9 9 9 9 8 8 12
49 49 48 52 45 38 36 36 35 33 30 26 22 20 17 13 10 7 7 8 9 8 6 6 10 10 12 14 15 8 7 6
56 50 54 61 45 43 42 39 35 31 26 22 17 13 9 6 6 10 13 17 21 17 14 5 2 2 4 4 6 9 13 15
61 64 75 76 55 47 42 38 33 25 20 16 13 9 7 7 13 16 17 12 6 2 2 3 4 6 5 8 8 8 8 6
66 93 90 57 52 48 42 34 27 20 14 9 6 5 10 20 21 12 7 5 3 3 3 3 4 13 17 15 11 9 12 13
99 92 59 53 52 44 39 27 16 12 8 5 4 11 24 32 24 5 5 4 4 3 3 4 13 15 22 24 20 14 14 15
82 61 53 51 48 44 32 19 13 10 6 4 4 36 45 48 18 5 6 3 4 5 4 3 8 21 22 22 26 28 24 17
66 58 51 45 43 33 20 14 9 6 4 4 4 22 49 56 13 7 6 6 4 5 5 5 4 5 21 26 27 28 25 25
63 57 45 40 29 21 14 10 8 7 7 5 3 15 36 60 12 7 8 14 19 15 9 7 8 5 4 12 35 35 27 23

GFSFLT2_500_rhum_162.txt.gz
RH
37 34 32 31 31 29 18 10 9 10 10 10 10 10 10 10 10 9 9 9 8 6 6 6 7 8 7 6 5 8 16 15
31 28 27 24 21 13 9 9 8 9 11 11 10 10 9 9 9 9 8 7 6 6 6 6 6 10 9 8 8 7 6 6
14 12 9 8 9 10 10 10 11 13 12 11 9 8 7 7 7 7 7 6 6 6 5 5 5 7 17 22 15 8 8 8
13 9 12 19 22 11 10 9 8 7 6 6 8 11 14 12 9 6 5 5 4 4 4 4 4 6 7 12 20 27 19 8
16 21 22 11 7 7 7 8 7 8 11 20 30 36 39 39 38 36 34 32 26 23 21 20 11 14 22 23 14 20 25 21
9 9 9 10 12 15 15 16 18 20 24 31 36 38 39 39 39 40 38 34 30 29 30 32 36 34 32 31 27 24 28 25
12 12 14 16 18 19 20 22 27 33 38 39 35 32 31 31 32 32 31 31 29 28 27 26 26 27 27 26 25 24 22 22
30 27 29 32 36 41 42 39 36 34 33 33 34 35 35 34 32 30 28 26 25 25 24 24 23 22 22 22 24 23 22 21
40 40 39 36 32 32 32 33 35 37 38 39 37 32 30 29 29 28 28 28 27 25 24 22 21 20 19 19 19 21 22 23
40 37 36 36 36 36 37 39 39 38 37 35 32 30 28 26 26 27 27 26 23 21 19 18 18 18 18 17 16 16 17 18
43 42 40 41 42 43 44 46 45 41 35 31 28 27 27 26 26 25 24 22 20 18 16 14 13 12 11 11 12 13 14 15
50 47 49 49 48 53 54 56 48 39 36 33 30 27 25 24 24 22 21 20 18 15 13 11 10 8 8 7 8 8 10 11
56 54 53 52 54 58 55 49 41 40 36 32 29 29 27 24 22 20 17 15 13 11 9 8 8 6 5 8 11 11 8 7
61 62 63 69 75 73 71 72 64 43 37 34 32 29 27 24 20 18 15 13 9 6 9 12 12 8 4 3 3 3 3 7
61 69 88 90 98 99 100 81 50 43 38 35 32 29 24 20 17 14 10 6 6 15 12 8 3 3 3 3 4 5 9 6
83 95 100 100 100 100 77 55 49 45 42 37 31 25 20 17 14 11 6 5 15 11 5 4 4 3 4 8 11 12 16 19
100 100 100 100 99 81 62 52 45 39 37 30 22 16 12 8 6 6 5 12 26 6 5 4 4 4 4 10 16 17 20 27
100 100 100 94 82 68 57 50 40 35 30 21 15 12 11 8 7 5 5 27 22 6 6 4 4 6 5 4 4 8 20 22
99 96 94 88 67 56 47 40 37 25 16 12 9 8 9 10 9 6 6 39 20 7 8 11 13 10 8 7 6 5 5 4
90 97 94 67 54 46 41 31 17 11 6 5 17 22 17 12 9 5 9 50 18 8 15 25 29 25 23 16 9 10 5 5

GFSFLT2_500_rhum_165.txt.gz
RH
31 33 33 34 34 33 32 28 22 11 8 8 8 8 9 9 9 9 9 8 8 8 8 7 7 6 7 7 8 8 7 5
28 25 24 23 19 15 11 8 8 11 8 7 7 7 7 7 8 7 7 6 6 7 7 7 6 6 6 6 6 9 10 8
17 18 13 11 8 10 12 23 26 12 8 6 6 6 6 6 6 7 10 15 21 20 16 9 6 5 5 5 5 5 6 12
14 18 19 18 17 17 18 13 9 8 8 7 7 7 8 12 22 31 36 39 38 36 34 30 23 13 8 6 5 5 5 6
13 11 10 10 9 10 9 9 9 9 9 10 12 13 16 25 34 38 38 39 40 39 39 38 36 35 34 33 32 30 16 13
38 34 29 24 19 15 13 12 14 16 18 24 31 34 35 32 30 30 29 29 29 28 29 30 29 27 27 26 28 30 34 32
45 41 37 32 28 25 23 25 32 36 35 32 30 29 29 30 30 31 31 31 29 28 28 28 27 26 24 22 22 23 26 27
42 44 44 43 42 42 42 39 35 34 34 34 35 35 35 34 33 31 30 28 26 24 22 20 20 20 20 20 20 19 21 22
41 43 46 45 44 41 39 38 38 38 39 39 40 39 37 37 34 29 25 22 20 20 19 18 18 20 20 19 19 19 18 18
48 46 47 46 45 44 43 42 42 44 44 44 45 45 42 36 31 28 25 22 19 16 15 15 15 16 18 19 18 16 16 17
57 55 54 53 53 53 51 49 50 50 50 52 52 49 39 34 30 25 21 19 16 16 17 15 15 14 15 16 16 15 14 15
61 59 56 56 58 57 58 59 58 62 66 63 56 44 39 33 26 22 20 18 17 17 17 16 14 13 14 14 13 11 10 10
67 63 59 60 65 66 63 61 63 65 66 66 58 59 45 31 26 24 22 22 20 19 18 16 15 14 12 10 8 6 6 6
71 66 63 65 68 72 79 83 83 85 89 84 76 66 41 30 27 26 24 22 17 14 13 13 10 8 6 9 6 5 4 4
72 70 65 69 82 90 92 95 99 98 91 81 72 54 36 32 29 27 23 18 15 13 11 10 8 10 11 5 4 4 7 7
63 65 80 96 95 100 97 95 92 91 83 71 47 35 33 30 25 19 16 15 14 10 8 5 18 10 4 4 4 4 18 21
77 88 100 100 100 97 95 98 89 80 68 43 35 31 24 18 13 10 9 10 11 11 6 18 22 6 6 4 5 4 6 24
95 99 100 100 100 92 81 82 83 71 41 36 31 22 13 7 4 5 8 11 10 8 6 34 14 7 8 5 7 7 5 5
93 100 100 100 100 94 91 94 63 44 39 26 16 8 4 7 15 16 18 18 13 7 10 46 12 12 18 19 22 21 13 10
100 100 100 100 99 97 72 56 49 34 21 11 8 6 22 39 61 56 66 53 38 40 44 46 10 29 27 29 26 25 23 21

GFSFLT2_500_rhum_171.txt.gz
RH
27 24 23 33 26 22 21 20 22 20 17 14 11 10 9 17 21 16 10 7 6 6 6 7 7 7 6 7 8 8 8 7
19 19 20 21 22 19 20 21 13 13 14 14 18 21 26 27 14 8 7 7 8 8 7 8 10 13 15 12 8 8 13 11
14 16 23 29 29 25 20 20 16 13 13 16 16 15 15 16 16 16 18 19 19 19 21 24 24 23 23 23 23 25 28 30
24 31 34 34 35 36 37 36 34 32 30 28 27 28 28 27 26 26 27 27 27 26 24 22 21 20 19 21 20 19 20 21
36 34 31 32 33 35 36 37 38 38 37 36 36 36 36 33 32 32 30 30 29 28 27 26 26 24 23 21 20 21 20 20
38 36 34 33 34 35 36 36 37 39 39 38 37 36 35 35 34 35 34 32 31 31 32 33 33 31 29 27 25 22 20 20
33 34 37 40 41 41 41 42 42 43 42 39 39 39 40 40 40 40 40 40 40 39 38 38 36 35 33 30 27 24 22 21
36 38 40 42 43 45 45 44 44 45 46 49 51 50 49 48 48 48 47 47 47 46 45 44 41 39 36 33 30 27 24 21
44 46 49 50 51 52 51 52 52 53 54 55 56 56 54 54 54 54 53 52 52 53 53 52 48 46 40 35 30 25 22 20
50 52 54 54 54 56 57 59 60 60 61 65 64 60 56 52 49 46 45 47 50 54 60 61 56 50 42 36 34 29 25 21
53 54 52 50 52 54 58 61 62 64 68 68 61 55 52 48 47 43 44 48 54 60 55 47 41 40 34 27 21 16 15 13
53 53 52 54 57 60 63 70 74 75 70 64 60 58 56 52 44 45 47 49 50 52 45 38 29 25 23 18 15 14 12 11
54 48 52 57 63 61 62 75 81 75 69 66 64 60 53 46 44 48 49 51 54 50 47 39 27 20 16 14 15 15 14 14
53 56 57 56 57 58 63 74 77 76 73 70 62 56 46 52 66 68 66 61 53 52 43 28 20 15 13 12 11 11 12 12
58 59 57 56 60 64 72 81 79 75 71 61 62 63 65 72 79 78 76 51 40 28 20 13 10 8 7 6 6 7 10 11
76 77 78 70 67 67 78 72 77 73 60 55 61 66 71 89 90 67 46 34 23 14 9 5 4 5 4 3 3 4 7 14
72 76 80 81 72 74 76 82 67 57 56 65 73 86 96 71 52 40 31 22 12 6 4 14 26 27 15 10 8 7 8 15
76 78 85 79 80 86 79 67 60 63 85 92 96 92 69 48 38 29 21 12 8 4 17 33 46 43 47 55 22 18 20 26
78 84 89 90 88 83 71 57 68 79 86 96 73 57 45 35 29 19 11 9 8 10 35 46 59 63 71 81 60 55 40 20
91 97 96 100 96 73 58 66 83 88 96 75 60 45 34 29 16 11 13 14 14 39 49 58 66 55 28 45 47 34 25 30